This is the latest recevied weather packets stored in our database for station/object KD0RIH. If no packets are shown the sender has not sent any weather packets the latest 10 day(s).
| Time | Temp. | Humidity | Pressure | Rain* | Wind** | Luminosity | Snow |
|---|---|---|---|---|---|---|---|
| 1777870232 | 16.11° C | 55% | 1007.7 hPa | 0 mm | - | 0 W/m² | - |
| 1777869929 | 16.11° C | 59% | 1008.2 hPa | 0 mm | - | 0 W/m² | - |
| 1777869626 | 16.11° C | 57% | 1008.3 hPa | 0 mm | - | 0 W/m² | - |
| 1777869323 | 16.67° C | 56% | 1008.1 hPa | 0 mm | - | 0 W/m² | - |
| 1777869021 | 16.11° C | 55% | 1007.9 hPa | 0 mm | - | 0 W/m² | - |
| 1777868717 | 16.11° C | 58% | 1007.8 hPa | 0 mm | - | 0 W/m² | - |
| 1777868414 | 16.11° C | 55% | 1008 hPa | 0 mm | - | 0 W/m² | - |
| 1777868110 | 16.11° C | 57% | 1008 hPa | 0 mm | - | 0 W/m² | - |
| 1777867806 | 16.67° C | 56% | 1008.1 hPa | 0 mm | - | 0 W/m² | - |
| 1777867504 | 16.67° C | 54% | 1008 hPa | 0 mm | - | 0 W/m² | - |
| 1777867200 | 16.67° C | 53% | 1008.1 hPa | 0 mm | - | 0 W/m² | - |
| 1777866897 | 17.22° C | 52% | 1008.2 hPa | 0 mm | - | 0 W/m² | - |
| 1777866594 | 17.22° C | 52% | 1008.3 hPa | 0 mm | - | 0 W/m² | - |
| 1777866291 | 17.22° C | 52% | 1008.3 hPa | 0 mm | - | 0 W/m² | - |
| 1777865988 | 17.22° C | 52% | 1008.4 hPa | 0 mm | - | 0 W/m² | - |
| 1777865686 | 17.22° C | 51% | 1008.4 hPa | 0 mm | - | 0 W/m² | - |
| 1777865383 | 16.67° C | 52% | 1008.6 hPa | 0 mm | - | 0 W/m² | - |
| 1777865080 | 16.67° C | 53% | 1008.6 hPa | 0 mm | - | 0 W/m² | - |
| 1777864777 | 16.67° C | 56% | 1008.6 hPa | 0 mm | - | 0 W/m² | - |
| 1777864474 | 16.67° C | 54% | 1008.4 hPa | 0 mm | - | 0 W/m² | - |
| 1777864170 | 17.22° C | 54% | 1008.4 hPa | 0 mm | - | 0 W/m² | - |
| 1777863867 | 17.22° C | 51% | 1008.3 hPa | 0 mm | - | 0 W/m² | - |
| 1777863563 | 17.22° C | 51% | 1008.3 hPa | 0 mm | - | 0 W/m² | - |
| 1777863260 | 17.22° C | 51% | 1008.2 hPa | 0 mm | - | 0 W/m² | - |
| 1777862957 | 17.78° C | 52% | 1008.2 hPa | 0 mm | - | 0 W/m² | - |
* Rain latest hour (hover to see other rain measurements)
** Current wind speed in m/s (hover to see current wind gust speed)